Regional Weather Roundup
Issued by NWS

Home | Current Version | Previous Version | Text Only | Print | Product List | Glossary On
Versions: 1 2 3 4 5 6 7 8 9 10 11 12 13 14 15 16 17 18 19 20 21 22 23 24 25 26 27 28 29 30 31 32 33 34 35 36 37 38 39 40 41 42 43 44 45 46 47 48 49 50
000
ASUS43 KBIS 262210
RWRND

NORTH DAKOTA REGIONAL WEATHER ROUNDUP
NATIONAL WEATHER SERVICE BISMARCK ND
500 PM CDT SUN APR 26 2015

NOTE: "FAIR" INDICATES FEW OR NO CLOUDS BELOW 12,000 FEET WITH NO
SIGNIFICANT WEATHER AND/OR OBSTRUCTIONS TO VISIBILITY.


NDZ001>003-009>011-017-262300-
NORTHWEST NORTH DAKOTA

CITY           SKY/WX    TMP DP  RH WIND       PRES   REMARKS
WILLISTON      MOSUNNY   56  35  45 VRB3      30.13S
MINOT          CLOUDY    48  45  89 SE5       30.12S
MINOT AFB      CLOUDY    51  50  95 S10       30.10S
$$

NDZ018>021-031>035-040>046-262300-
SOUTHWEST NORTH DAKOTA

CITY           SKY/WX    TMP DP  RH WIND       PRES   REMARKS
BISMARCK       CLOUDY    59  43  55 NE3       30.09S
DICKINSON      LGT RAIN  44  41  89 NE9       30.10R
GARRISON         N/A     48  44  86 N6        30.12S
HETTINGER ARPT CLOUDY    49  46  90 N12       30.08F FOG
$$

NDZ004>008-012>016-024-026-027-054-262300-
NORTHEAST NORTH DAKOTA

CITY           SKY/WX    TMP DP  RH WIND       PRES   REMARKS
GRAND FORKS    MOSUNNY   68  25  19 E5        30.10S
GRND FRKS AFB  SUNNY     67  26  21 SW8       30.10S
DEVILS LAKE    PTSUNNY   61  45  55 NW7       30.10S
$$

NDZ022-023-025-028>030-036>039-047>053-262300-
SOUTHEAST NORTH DAKOTA

CITY           SKY/WX    TMP DP  RH WIND       PRES   REMARKS
FARGO          SUNNY     67  25  20 CALM      30.09F
JAMESTOWN      MOSUNNY   66  32  28 SE5       30.07F
$$




USA.gov is the U.S. government's official web portal to all federal, state and local government web resources and services.